VAF230 MKJP-KMIA

Flight info

Callsign VAF230
Flight time N/A
Altitude 34000
Route ALTIB UM779 ZEUSS VIICE2
Aircraft B738/M-SDE2E3FGHIRWXY/LB1

Departure

Time 2026-05-06 13:49
Airport Norman Manley International Airport (MKJP)

Arrival

Time N/A
Airport Miami International Airport (KMIA)
Time Latitude Longitude Altitude Speed Heading
2026-05-06 13:19 17.93656 -76.77939 18 ft 0 kts 292°
2026-05-06 13:42 17.93656 -76.77937 18 ft 2 kts 292°
2026-05-06 13:43 17.93646 -76.77912 18 ft 4 kts 289°
2026-05-06 13:43 17.93639 -76.77885 18 ft 4 kts 272°
2026-05-06 13:43 17.93644 -76.77865 18 ft 4 kts 208°
2026-05-06 13:43 17.93652 -76.77861 18 ft 0 kts 199°
2026-05-06 13:44 17.93651 -76.77861 18 ft 0 kts 199°
2026-05-06 13:45 17.93497 -76.77914 18 ft 13 kts 203°
2026-05-06 13:45 17.93421 -76.77929 18 ft 11 kts 149°
2026-05-06 13:46 17.93385 -76.77863 18 ft 12 kts 112°
2026-05-06 13:46 17.93342 -76.77756 18 ft 17 kts 120°
2026-05-06 13:46 17.93274 -76.77745 18 ft 8 kts 208°
2026-05-06 13:46 17.93239 -76.77764 18 ft 6 kts 197°
2026-05-06 13:47 17.93186 -76.77747 18 ft 11 kts 128°
2026-05-06 13:47 17.93149 -76.77655 18 ft 16 kts 88°
2026-05-06 13:47 17.93146 -76.77570 18 ft 9 kts 156°
2026-05-06 13:47 17.93121 -76.77595 18 ft 2 kts 285°
2026-05-06 13:48 17.93125 -76.77605 18 ft 6 kts 292°
2026-05-06 13:48 17.93200 -76.77800 18 ft 61 kts 291°
2026-05-06 13:48 17.93444 -76.78437 18 ft 126 kts 292°
2026-05-06 13:48 17.93844 -76.79475 58 ft 178 kts 293°
2026-05-06 13:49 17.94324 -76.80777 523 ft 204 kts 292°
2026-05-06 13:49 17.94850 -76.82249 1103 ft 223 kts 290°
2026-05-06 13:49 17.95323 -76.83799 1910 ft 227 kts 290°
2026-05-06 13:49 17.95927 -76.85390 2483 ft 241 kts 293°
2026-05-06 13:50 17.96563 -76.87032 3369 ft 238 kts 294°
2026-05-06 13:50 17.97175 -76.88623 4176 ft 241 kts 294°
2026-05-06 13:50 17.97813 -76.90283 4828 ft 248 kts 295°
2026-05-06 13:50 17.98469 -76.91990 5492 ft 255 kts 295°
2026-05-06 13:51 17.99141 -76.93736 6203 ft 259 kts 295°
2026-05-06 13:51 17.99824 -76.95513 6881 ft 264 kts 294°
2026-05-06 13:51 18.00518 -76.97313 7596 ft 266 kts 294°
2026-05-06 13:51 18.01204 -76.99097 8326 ft 267 kts 293°
2026-05-06 13:52 18.01907 -77.00920 9036 ft 268 kts 292°
2026-05-06 13:52 18.02626 -77.02734 9733 ft 271 kts 298°
2026-05-06 13:52 18.03810 -77.04267 10381 ft 272 kts 321°
2026-05-06 13:52 18.05455 -77.05244 11055 ft 273 kts 342°
2026-05-06 13:53 18.07344 -77.05442 11672 ft 276 kts
2026-05-06 13:53 18.09123 -77.04718 12291 ft 277 kts 34°
2026-05-06 13:53 18.10608 -77.03408 12938 ft 280 kts 44°
2026-05-06 13:53 18.11971 -77.01961 13558 ft 284 kts 48°
2026-05-06 13:54 18.13303 -77.00414 14205 ft 287 kts 49°
2026-05-06 13:54 18.14642 -76.98842 14837 ft 291 kts 49°
2026-05-06 13:54 18.15962 -76.97209 15460 ft 295 kts 51°
2026-05-06 13:54 18.17230 -76.95495 16075 ft 298 kts 54°
2026-05-06 13:55 18.18441 -76.93703 16678 ft 302 kts 56°
2026-05-06 13:55 18.19579 -76.91830 17266 ft 306 kts 59°
2026-05-06 13:55 18.20594 -76.89852 17848 ft 309 kts 65°
2026-05-06 13:55 18.21435 -76.87752 18423 ft 313 kts 69°
2026-05-06 13:56 18.22422 -76.85716 18958 ft 315 kts 49°
2026-05-06 13:56 18.24154 -76.84344 19490 ft 315 kts 21°
2026-05-06 13:56 18.26299 -76.83966 19909 ft 317 kts 353°
2026-05-06 13:56 18.28431 -76.84617 20188 ft 326 kts 335°
2026-05-06 13:57 18.30551 -76.85524 20384 ft 340 kts 339°
2026-05-06 13:57 18.32847 -76.86309 20556 ft 354 kts 341°
2026-05-06 13:57 18.35252 -76.87059 20714 ft 367 kts 343°
2026-05-06 13:57 18.37799 -76.87581 20851 ft 381 kts 355°
2026-05-06 13:58 18.40477 -76.87304 20987 ft 395 kts 12°
2026-05-06 13:58 18.43215 -76.86832 21108 ft 402 kts 357°
2026-05-06 13:58 18.45934 -76.87445 21389 ft 403 kts 336°
2026-05-06 13:58 18.48439 -76.88760 21797 ft 403 kts 334°
2026-05-06 13:59 18.51008 -76.89891 22194 ft 405 kts 339°
2026-05-06 13:59 18.53695 -76.90823 22591 ft 406 kts 341°
2026-05-06 13:59 18.56409 -76.91684 22957 ft 407 kts 344°
2026-05-06 13:59 18.59162 -76.92438 23314 ft 409 kts 345°
2026-05-06 14:00 18.61902 -76.93144 23653 ft 410 kts 346°
2026-05-06 14:00 18.64682 -76.93838 23952 ft 412 kts 346°
2026-05-06 14:00 18.67487 -76.94522 24234 ft 414 kts 347°
2026-05-06 14:00 18.70313 -76.95173 24515 ft 416 kts 348°
2026-05-06 14:01 18.73159 -76.95802 24785 ft 418 kts 348°
2026-05-06 14:01 18.76019 -76.96434 25068 ft 419 kts 348°
2026-05-06 14:01 18.78876 -76.97066 25338 ft 421 kts 348°
2026-05-06 14:01 18.81698 -76.97690 25671 ft 420 kts 348°
2026-05-06 14:02 18.84558 -76.98324 25988 ft 420 kts 348°
2026-05-06 14:02 18.87427 -76.98961 26206 ft 422 kts 348°
2026-05-06 14:02 18.90317 -76.99602 26441 ft 423 kts 348°
2026-05-06 14:02 18.93171 -77.00236 26672 ft 425 kts 348°
2026-05-06 14:03 18.96069 -77.00880 26898 ft 426 kts 348°
2026-05-06 14:03 18.98975 -77.01526 27117 ft 427 kts 348°
2026-05-06 14:03 19.01895 -77.02174 27334 ft 429 kts 348°
2026-05-06 14:03 19.04816 -77.02820 27545 ft 430 kts 348°
2026-05-06 14:04 19.07756 -77.03473 27750 ft 431 kts 348°
2026-05-06 14:04 19.10707 -77.04128 27949 ft 433 kts 348°
2026-05-06 14:04 19.13629 -77.04778 28143 ft 434 kts 348°
2026-05-06 14:04 19.16596 -77.05439 28336 ft 435 kts 348°
2026-05-06 14:05 19.19561 -77.06099 28533 ft 436 kts 348°
2026-05-06 14:05 19.22539 -77.06763 28741 ft 437 kts 348°
2026-05-06 14:05 19.25529 -77.07430 28915 ft 438 kts 348°
2026-05-06 14:05 19.28477 -77.08088 29089 ft 439 kts 348°
2026-05-06 14:06 19.31467 -77.08756 29323 ft 438 kts 348°
2026-05-06 14:06 19.34410 -77.09595 29592 ft 438 kts 342°
2026-05-06 14:06 19.37283 -77.10686 29837 ft 438 kts 340°
2026-05-06 14:06 19.40129 -77.11863 30079 ft 437 kts 340°
2026-05-06 14:07 19.42960 -77.13048 30333 ft 437 kts 340°
2026-05-06 14:07 19.45780 -77.14230 30594 ft 436 kts 340°
2026-05-06 14:07 19.48602 -77.15412 30844 ft 436 kts 340°
2026-05-06 14:07 19.51392 -77.16582 31099 ft 435 kts 340°
2026-05-06 14:08 19.54208 -77.17763 31356 ft 435 kts 340°
2026-05-06 14:08 19.57014 -77.18941 31613 ft 434 kts 340°
2026-05-06 14:08 19.59830 -77.20123 31871 ft 434 kts 340°
2026-05-06 14:08 19.62637 -77.21301 32142 ft 433 kts 340°
2026-05-06 14:09 19.65440 -77.22479 32437 ft 431 kts 340°
2026-05-06 14:09 19.68224 -77.23645 32711 ft 430 kts 340°
2026-05-06 14:09 19.71013 -77.24814 32993 ft 429 kts 340°
2026-05-06 14:09 19.73789 -77.25978 33268 ft 428 kts 340°
2026-05-06 14:10 19.76564 -77.27142 33418 ft 431 kts 340°
2026-05-06 14:10 19.79323 -77.28300 33684 ft 429 kts 340°
2026-05-06 14:10 19.82091 -77.29463 34038 ft 426 kts 340°
2026-05-06 14:10 19.84860 -77.30627 34103 ft 427 kts 340°
2026-05-06 14:11 19.89451 -77.32559 34111 ft 425 kts 340°
2026-05-06 14:11 19.94949 -77.34874 34112 ft 424 kts 340°
2026-05-06 14:12 20.01338 -77.37566 34112 ft 425 kts 340°
2026-05-06 14:12 20.05943 -77.39508 34112 ft 425 kts 340°
2026-05-06 14:13 20.11405 -77.41813 34112 ft 425 kts 340°
2026-05-06 14:13 20.16908 -77.44137 34113 ft 425 kts 340°
2026-05-06 14:14 20.22418 -77.46466 34111 ft 425 kts 340°
2026-05-06 14:14 20.27890 -77.48781 34112 ft 425 kts 340°
2026-05-06 14:15 20.33376 -77.51103 34112 ft 424 kts 339°
2026-05-06 14:15 20.38856 -77.53424 34112 ft 424 kts 339°
2026-05-06 14:16 20.44343 -77.55751 34110 ft 424 kts 339°
2026-05-06 14:16 20.49825 -77.58077 34110 ft 424 kts 339°
2026-05-06 14:17 20.55274 -77.60391 34107 ft 424 kts 339°
2026-05-06 14:17 20.60761 -77.62723 34103 ft 424 kts 339°
2026-05-06 14:18 20.66250 -77.65057 34102 ft 424 kts 339°
2026-05-06 14:18 20.71701 -77.67377 34103 ft 423 kts 339°
2026-05-06 14:19 20.77180 -77.69710 34099 ft 424 kts 339°
2026-05-06 14:19 20.82673 -77.72052 34099 ft 424 kts 339°
2026-05-06 14:20 20.88120 -77.74376 34100 ft 423 kts 339°
2026-05-06 14:20 20.93594 -77.76712 34095 ft 424 kts 339°
2026-05-06 14:21 20.99128 -77.79073 34095 ft 431 kts 338°
2026-05-06 14:21 21.04709 -77.81462 34095 ft 431 kts 338°
2026-05-06 14:22 21.10270 -77.83843 34088 ft 430 kts 338°
2026-05-06 14:22 21.15805 -77.86215 34084 ft 431 kts 338°
2026-05-06 14:23 21.21383 -77.88606 34085 ft 430 kts 338°
2026-05-06 14:23 21.26945 -77.90993 34085 ft 430 kts 338°
2026-05-06 14:24 21.32442 -77.93354 34083 ft 426 kts 338°
2026-05-06 14:24 21.37954 -77.95722 34084 ft 426 kts 338°
2026-05-06 14:25 21.43463 -77.98091 34083 ft 426 kts 338°
2026-05-06 14:25 21.48970 -78.00462 34083 ft 426 kts 338°
2026-05-06 14:26 21.54479 -78.02835 34083 ft 427 kts 338°
2026-05-06 14:26 21.59970 -78.05202 34083 ft 426 kts 337°
2026-05-06 14:27 21.65469 -78.07575 34084 ft 426 kts 337°
2026-05-06 14:27 21.70978 -78.09955 34084 ft 426 kts 337°
2026-05-06 14:28 21.73729 -78.11143 34084 ft 426 kts 337°